EN

Hourly Weather Altschwandi

Today, 22 January, Friday

Time Temperature Precipitation Wind Pressure Humidity
00:00 +3°C° 0 mm 2 mps 702 mmHg 82%
01:00 +3°C° 0 mm 2 mps 702 mmHg 83%
02:00 +3°C° 0.3 mm 2 mps 702 mmHg 85%
03:00 +2°C° 0.3 mm 3 mps 701 mmHg 88%
04:00 +2°C° 0.3 mm 3 mps 701 mmHg 90%
05:00 +2°C° 0 mm 3 mps 701 mmHg 87%
06:00 +2°C° 0 mm 3 mps 700 mmHg 84%
07:00 +3°C° 0 mm 2 mps 700 mmHg 82%
08:00 +3°C° 0 mm 2 mps 700 mmHg 82%
09:00 +4°C° 0 mm 2 mps 699 mmHg 83%
10:00 +5°C° 0 mm 2 mps 699 mmHg 84%
11:00 +6°C° 0 mm 2 mps 699 mmHg 85%
12:00 +7°C° 0 mm 2 mps 698 mmHg 86%
13:00 +8°C° 0 mm 2 mps 698 mmHg 87%
14:00 +8°C° 0 mm 1 mps 697 mmHg 88%
15:00 +7°C° 0 mm 1 mps 696 mmHg 90%
16:00 +6°C° 0 mm 1 mps 696 mmHg 92%
17:00 +6°C° 0 mm 1 mps 696 mmHg 91%
18:00 +5°C° 0 mm 1 mps 695 mmHg 91%
19:00 +4°C° 0 mm 1 mps 695 mmHg 91%
20:00 +4°C° 0.5 mm 1 mps 695 mmHg 93%
21:00 +4°C° 0.5 mm 1 mps 695 mmHg 96%
22:00 +4°C° 0.5 mm 1 mps 695 mmHg 98%
23:00 +4°C° 1.6 mm 1 mps 695 mmHg 98%

Tomorrow, 23 January, Saturday

Time Temperature Precipitation Wind Pressure Humidity
00:00 +3°C° 1.6 mm 2 mps 696 mmHg 98%
01:00 +3°C° 1.6 mm 2 mps 696 mmHg 98%
02:00 +1°C° 1.5 mm 3 mps 697 mmHg 98%
03:00 0°C° 1.5 mm 3 mps 698 mmHg 97%
04:00 0°C° 1.5 mm 3 mps 698 mmHg 97%
05:00 -1°C° 0.4 mm 3 mps 699 mmHg 96%
06:00 -1°C° 0.4 mm 2 mps 699 mmHg 96%
07:00 +1°C° 0.4 mm 1 mps 699 mmHg 95%
08:00 +1°C° 0 mm 1 mps 699 mmHg 92%
09:00 +2°C° 0 mm 1 mps 699 mmHg 90%
10:00 +1°C° 0 mm 0 mps 699 mmHg 87%
11:00 +3°C° 0 mm 1 mps 699 mmHg 86%
12:00 +3°C° 0 mm 1 mps 699 mmHg 86%
13:00 +4°C° 0 mm 1 mps 698 mmHg 85%
14:00 +3°C° 0 mm 1 mps 698 mmHg 88%
15:00 +3°C° 0 mm 1 mps 698 mmHg 90%
16:00 +3°C° 0 mm 1 mps 697 mmHg 92%
17:00 +1°C° 0 mm 1 mps 698 mmHg 89%
18:00 0°C° 0 mm 1 mps 698 mmHg 86%
19:00 -1°C° 0 mm 1 mps 698 mmHg 83%
20:00 -1°C° 0 mm 1 mps 698 mmHg 82%
21:00 -1°C° 0 mm 1 mps 698 mmHg 80%
22:00 -1°C° 0 mm 1 mps 698 mmHg 78%
23:00 -1°C° 0.1 mm 1 mps 698 mmHg 80%

Day after tomorrow, 24 January, Sunday

Time Temperature Precipitation Wind Pressure Humidity
00:00 -1°C° 0.1 mm 1 mps 699 mmHg 83%
01:00 -1°C° 0.1 mm 1 mps 699 mmHg 85%
02:00 -3°C° 0.2 mm 2 mps 699 mmHg 88%
03:00 -2°C° 0.2 mm 2 mps 699 mmHg 91%
04:00 -2°C° 0.2 mm 2 mps 699 mmHg 93%
05:00 -2°C° 0.3 mm 2 mps 700 mmHg 94%
06:00 -1°C° 0.3 mm 1 mps 701 mmHg 95%
07:00 -1°C° 0.3 mm 1 mps 701 mmHg 96%
08:00 0°C° 0.2 mm 1 mps 702 mmHg 94%
09:00 0°C° 0.2 mm 1 mps 702 mmHg 93%
10:00 0°C° 0.2 mm 1 mps 702 mmHg 91%
11:00 +1°C° 0 mm 1 mps 702 mmHg 86%
12:00 +2°C° 0 mm 1 mps 702 mmHg 81%
13:00 +2°C° 0 mm 0 mps 702 mmHg 76%
14:00 +1°C° 0 mm 0 mps 701 mmHg 79%
15:00 +1°C° 0 mm 0 mps 701 mmHg 82%
16:00 +1°C° 0 mm 0 mps 701 mmHg 85%
17:00 0°C° 0 mm 0 mps 701 mmHg 85%
18:00 0°C° 0 mm 1 mps 701 mmHg 85%
19:00 -1°C° 0 mm 1 mps 702 mmHg 84%
20:00 -1°C° 0.1 mm 1 mps 702 mmHg 87%
21:00 -1°C° 0.1 mm 1 mps 702 mmHg 89%
22:00 -1°C° 0.1 mm 1 mps 702 mmHg 91%
23:00 0°C° 0.4 mm 1 mps 702 mmHg 93%

25 January, Monday

Time Temperature Precipitation Wind Pressure Humidity
00:00 0°C° 0.4 mm 1 mps 702 mmHg 94%
01:00 -2°C° 0.4 mm 2 mps 702 mmHg 95%
02:00 -3°C° 0.5 mm 2 mps 703 mmHg 95%
03:00 -3°C° 0.5 mm 2 mps 703 mmHg 95%
04:00 -3°C° 0.5 mm 2 mps 704 mmHg 96%
05:00 -3°C° 0.4 mm 2 mps 704 mmHg 95%
06:00 -4°C° 0.4 mm 3 mps 705 mmHg 94%
07:00 -5°C° 0.4 mm 3 mps 706 mmHg 94%
08:00 -4°C° 0.3 mm 3 mps 706 mmHg 93%
09:00 -4°C° 0.3 mm 3 mps 707 mmHg 92%
10:00 -4°C° 0.3 mm 3 mps 708 mmHg 92%
11:00 -3°C° 0.2 mm 4 mps 708 mmHg 88%
12:00 -2°C° 0.2 mm 4 mps 709 mmHg 85%
13:00 -2°C° 0.2 mm 4 mps 709 mmHg 82%
14:00 -1°C° 0.1 mm 3 mps 709 mmHg 82%
15:00 -1°C° 0.1 mm 3 mps 709 mmHg 83%
16:00 -1°C° 0.1 mm 2 mps 709 mmHg 84%
17:00 -2°C° 0.2 mm 3 mps 710 mmHg 86%
18:00 -2°C° 0.2 mm 3 mps 710 mmHg 88%
19:00 -4°C° 0.2 mm 3 mps 711 mmHg 91%
20:00 -4°C° 0.2 mm 3 mps 711 mmHg 90%
21:00 -4°C° 0.2 mm 3 mps 712 mmHg 89%
22:00 -4°C° 0.2 mm 3 mps 712 mmHg 88%
23:00 -3°C° 0.1 mm 2 mps 712 mmHg 88%

26 January, Tuesday

Time Temperature Precipitation Wind Pressure Humidity
00:00 -3°C° 0.1 mm 2 mps 713 mmHg 89%
01:00 -3°C° 0.1 mm 2 mps 713 mmHg 89%
02:00 -3°C° 0.1 mm 2 mps 713 mmHg 89%
03:00 -3°C° 0.1 mm 2 mps 713 mmHg 89%
04:00 -1°C° 0.1 mm 1 mps 713 mmHg 89%
05:00 -3°C° 0.3 mm 2 mps 713 mmHg 91%
06:00 -3°C° 0.3 mm 2 mps 714 mmHg 93%
07:00 -3°C° 0.3 mm 2 mps 714 mmHg 95%
08:00 -3°C° 0.1 mm 2 mps 714 mmHg 93%
09:00 -2°C° 0.1 mm 2 mps 714 mmHg 92%
10:00 -1°C° 0.1 mm 2 mps 715 mmHg 90%
11:00 -1°C° 0.1 mm 2 mps 714 mmHg 89%
12:00 +1°C° 0.1 mm 2 mps 714 mmHg 88%
13:00 +2°C° 0.1 mm 2 mps 714 mmHg 86%
14:00 +2°C° 0 mm 2 mps 714 mmHg 88%
15:00 +2°C° 0 mm 1 mps 714 mmHg 89%
16:00 +2°C° 0 mm 1 mps 714 mmHg 90%
17:00 +2°C° 0 mm 1 mps 714 mmHg 89%
18:00 +1°C° 0 mm 1 mps 714 mmHg 88%
19:00 +1°C° 0 mm 1 mps 714 mmHg 88%
20:00 +1°C° 0.1 mm 1 mps 714 mmHg 88%
21:00 +1°C° 0.1 mm 1 mps 714 mmHg 89%
22:00 +1°C° 0.1 mm 1 mps 714 mmHg 89%
23:00 +1°C° 0.3 mm 1 mps 713 mmHg 91%

27 January, Wednesday

Time Temperature Precipitation Wind Pressure Humidity
00:00 +2°C° 0.3 mm 1 mps 713 mmHg 92%
01:00 +2°C° 0.3 mm 1 mps 712 mmHg 93%
02:00 +2°C° 0.2 mm 2 mps 712 mmHg 94%
03:00 +2°C° 0.2 mm 2 mps 712 mmHg 94%
04:00 +2°C° 0.2 mm 3 mps 711 mmHg 95%
05:00 +2°C° 0.6 mm 3 mps 711 mmHg 96%
06:00 +3°C° 0.6 mm 4 mps 711 mmHg 96%
07:00 +3°C° 0.6 mm 4 mps 712 mmHg 97%
08:00 +3°C° 1 mm 4 mps 712 mmHg 97%
09:00 +3°C° 1 mm 4 mps 713 mmHg 97%
10:00 +3°C° 1 mm 3 mps 713 mmHg 98%
11:00 +3°C° 0.5 mm 3 mps 713 mmHg 96%
12:00 +3°C° 0.5 mm 3 mps 714 mmHg 95%
13:00 +4°C° 0.5 mm 3 mps 714 mmHg 93%
14:00 +4°C° 0.3 mm 3 mps 714 mmHg 94%
15:00 +4°C° 0.3 mm 2 mps 715 mmHg 94%
16:00 +4°C° 0.3 mm 2 mps 715 mmHg 94%
17:00 +3°C° 0.1 mm 2 mps 715 mmHg 93%
18:00 +2°C° 0.1 mm 2 mps 716 mmHg 91%
19:00 +1°C° 0.1 mm 2 mps 716 mmHg 89%
20:00 +1°C° 0 mm 2 mps 716 mmHg 85%
21:00 +1°C° 0 mm 2 mps 716 mmHg 80%
22:00 +1°C° 0 mm 2 mps 716 mmHg 75%
23:00 +1°C° 0 mm 2 mps 716 mmHg 73%
Show more